| time (UTC) | temp F | wind direction | speed MPH | gust MPH | rain 1hr in | rain 24hr in | rain mn in | humidity % | barometer mb |
| 20260509223016 | 72 | 248 | 6.0 | 9.0 | 0.00 | 0.00 | 0.00 | 39 | 1008.7 |
| 20260509221522 | 71 | 300 | 7.0 | 11.0 | 0.00 | 0.00 | 0.00 | 40 | 1008.7 |
| 20260509220025 | 71 | 159 | 3.0 | 14.0 | 0.00 | 0.00 | 0.00 | 40 | 1008.6 |
| 20260509214511 | 71 | 213 | 2.0 | 8.0 | 0.00 | 0.00 | 0.00 | 42 | 1008.6 |
| 20260509213015 | 71 | 101 | 1.0 | 4.0 | 0.00 | 0.00 | 0.00 | 40 | 1008.3 |
| 20260509211522 | 70 | 290 | 1.0 | 2.0 | 0.00 | 0.00 | 0.00 | 41 | 1008.2 |
| 20260509210024 | 70 | 284 | 0.0 | 3.0 | 0.00 | 0.00 | 0.00 | 43 | 1008.2 |
| 20260509204525 | 70 | 348 | 1.0 | 6.0 | 0.00 | 0.00 | 0.00 | 45 | 1008.1 |
| 20260509203013 | 71 | 329 | 0.0 | 3.0 | 0.00 | 0.00 | 0.00 | 43 | 1008.0 |
| 20260509201517 | 70 | 349 | 1.0 | 6.0 | 0.00 | 0.00 | 0.00 | 46 | 1008.1 |
| 20260509200022 | 70 | 86 | 1.0 | 3.0 | 0.00 | 0.00 | 0.00 | 45 | 1008.1 |
| 20260509194529 | 71 | 359 | 1.0 | 3.0 | 0.00 | 0.00 | 0.00 | 43 | 1008.2 |
| 20260509193011 | 71 | 322 | 1.0 | 3.0 | 0.00 | 0.00 | 0.00 | 44 | 1008.2 |
| 20260509191515 | 71 | 91 | 0.0 | 5.0 | 0.00 | 0.00 | 0.00 | 42 | 1008.2 |
| 20260509190022 | 72 | 330 | 3.0 | 4.0 | 0.00 | 0.00 | 0.00 | 40 | 1008.3 |
| 20260509184541 | 71 | 322 | 1.0 | 6.0 | 0.00 | 0.00 | 0.00 | 44 | 1008.4 |
| 20260509183025 | 70 | 356 | 3.0 | 5.0 | 0.00 | 0.00 | 0.00 | 46 | 1008.8 |
| 20260509181511 | 67 | 257 | 2.0 | 3.0 | 0.00 | 0.00 | 0.00 | 48 | 1008.8 |
| 20260509180019 | 67 | 32 | 0.0 | 2.0 | 0.00 | 0.00 | 0.00 | 48 | 1009.1 |
| 20260509174527 | 65 | 228 | 2.0 | 3.0 | 0.00 | 0.00 | 0.00 | 49 | 1009.5 |
| 20260509173026 | 66 | 352 | 0.0 | 4.0 | 0.00 | 0.00 | 0.00 | 46 | 1009.7 |
| 20260509171526 | 65 | 130 | 0.0 | 2.0 | 0.00 | 0.00 | 0.00 | 48 | 1009.9 |
| 20260509170026 | 64 | 110 | 1.0 | 4.0 | 0.00 | 0.00 | 0.00 | 49 | 1010.0 |
| 20260509164520 | 63 | 56 | 1.0 | 2.0 | 0.00 | 0.00 | 0.00 | 49 | 1010.0 |
| 20260509163026 | 63 | 113 | 2.0 | 6.0 | 0.00 | 0.00 | 0.00 | 50 | 1010.0 |
| 20260509161527 | 62 | 84 | 0.0 | 4.0 | 0.00 | 0.00 | 0.00 | 52 | 1010.3 |
| 20260509160028 | 62 | 76 | 2.0 | 5.0 | 0.00 | 0.00 | 0.00 | 51 | 1010.5 |
| 20260509154520 | 61 | 70 | 1.0 | 5.0 | 0.00 | 0.00 | 0.00 | 53 | 1010.8 |
| 20260509153003 | 62 | 301 | 2.0 | 5.0 | 0.00 | 0.00 | 0.00 | 52 | 1010.6 |
| 20260509151505 | 62 | 82 | 0.0 | 3.0 | 0.00 | 0.00 | 0.00 | 52 | 1010.3 |
| 20260509150008 | 62 | 98 | 1.0 | 5.0 | 0.00 | 0.00 | 0.00 | 52 | 1010.3 |
| 20260509144517 | 62 | 11 | 3.0 | 8.0 | 0.00 | 0.00 | 0.00 | 50 | 1010.5 |
| 20260509143020 | 62 | 137 | 1.0 | 5.0 | 0.00 | 0.00 | 0.00 | 53 | 1010.5 |
| 20260509141512 | 61 | 332 | 1.0 | 3.0 | 0.00 | 0.00 | 0.00 | 51 | 1010.6 |
| 20260509140007 | 59 | 82 | 0.0 | 0.0 | 0.00 | 0.00 | 0.00 | 58 | 1010.6 |
| 20260509134525 | 58 | 281 | 0.0 | 2.0 | 0.00 | 0.00 | 0.00 | 59 | 1010.9 |
| 20260509133018 | 56 | 236 | 0.0 | 4.0 | 0.00 | 0.00 | 0.00 | 63 | 1011.0 |
| 20260509131528 | 55 | 281 | 2.0 | 5.0 | 0.00 | 0.00 | 0.00 | 66 | 1010.9 |
| 20260509130005 | 54 | 279 | 1.0 | 3.0 | 0.00 | 0.00 | 0.00 | 66 | 1010.9 |
| 20260509124511 | 54 | 235 | 0.0 | 2.0 | 0.00 | 0.00 | 0.00 | 67 | 1010.9 |
| 20260509123017 | 53 | 253 | 0.0 | 1.0 | 0.00 | 0.00 | 0.00 | 68 | 1010.8 |
| 20260509121520 | 53 | 248 | 0.0 | 1.0 | 0.00 | 0.00 | 0.00 | 67 | 1010.9 |
| 20260509120025 | 53 | 222 | 0.0 | 4.0 | 0.00 | 0.00 | 0.00 | 67 | 1011.1 |
| 20260509114505 | 53 | 236 | 1.0 | 3.0 | 0.00 | 0.00 | 0.00 | 66 | 1010.9 |
| 20260509113012 | 53 | 291 | 2.0 | 5.0 | 0.00 | 0.00 | 0.00 | 65 | 1010.9 |
| 20260509111517 | 52 | 184 | 0.0 | 4.0 | 0.00 | 0.00 | 0.00 | 65 | 1010.8 |
| 20260509110024 | 52 | 266 | 3.0 | 8.0 | 0.00 | 0.00 | 0.00 | 65 | 1010.8 |
| 20260509104507 | 52 | 249 | 1.0 | 4.0 | 0.00 | 0.00 | 0.00 | 65 | 1010.6 |
| 20260509103010 | 52 | 65 | 0.0 | 3.0 | 0.00 | 0.00 | 0.00 | 65 | 1010.7 |
| 20260509101526 | 53 | 288 | 4.0 | 7.0 | 0.00 | 0.00 | 0.00 | 64 | 1010.6 |
| 20260509100019 | 53 | 278 | 4.0 | 9.0 | 0.00 | 0.00 | 0.00 | 63 | 1010.6 |
| 20260509094532 | 53 | 243 | 4.0 | 6.0 | 0.00 | 0.00 | 0.00 | 63 | 1010.4 |
| 20260509093009 | 53 | 274 | 3.0 | 7.0 | 0.00 | 0.00 | 0.00 | 62 | 1010.6 |
| 20260509091516 | 53 | 299 | 2.0 | 6.0 | 0.00 | 0.00 | 0.00 | 61 | 1010.8 |
| 20260509090018 | 54 | 264 | 3.0 | 5.0 | 0.00 | 0.00 | 0.00 | 60 | 1010.8 |
| 20260509084524 | 53 | 274 | 2.0 | 5.0 | 0.00 | 0.00 | 0.00 | 62 | 1011.0 |
| 20260509083028 | 53 | 294 | 4.0 | 6.0 | 0.00 | 0.00 | 0.00 | 61 | 1010.9 |
| 20260509081522 | 53 | 268 | 2.0 | 7.0 | 0.00 | 0.00 | 0.00 | 61 | 1010.9 |
| 20260509080017 | 53 | 276 | 3.0 | 7.0 | 0.00 | 0.00 | 0.00 | 61 | 1011.0 |
| 20260509074520 | 53 | 219 | 5.0 | 8.0 | 0.00 | 0.00 | 0.00 | 62 | 1011.0 |
| 20260509073039 | 53 | 266 | 4.0 | 8.0 | 0.00 | 0.00 | 0.00 | 61 | 1010.9 |
| 20260509071538 | 53 | 285 | 4.0 | 11.0 | 0.00 | 0.00 | 0.00 | 61 | 1011.1 |
| 20260509070032 | 53 | 259 | 4.0 | 7.0 | 0.00 | 0.00 | 0.00 | 62 | 1011.1 |
| 20260509064522 | 52 | 328 | 4.0 | 7.0 | 0.00 | 0.00 | 0.00 | 64 | 1011.1 |
| 20260509063051 | 52 | 262 | 3.0 | 8.0 | 0.00 | 0.00 | 0.00 | 64 | 1011.3 |
| 20260509061542 | 53 | 281 | 4.0 | 9.0 | 0.00 | 0.00 | 0.00 | 63 | 1011.4 |
| 20260509060047 | 53 | 288 | 4.0 | 8.0 | 0.00 | 0.00 | 0.00 | 63 | 1011.4 |
| 20260509054518 | 53 | 278 | 4.0 | 8.0 | 0.00 | 0.00 | 0.00 | 62 | 1011.6 |
| 20260509053023 | 54 | 250 | 3.0 | 6.0 | 0.00 | 0.00 | 0.00 | 61 | 1011.6 |
| 20260509051526 | 54 | 266 | 3.0 | 7.0 | 0.00 | 0.00 | 0.00 | 60 | 1011.6 |
| 20260509050009 | 55 | 293 | 3.0 | 7.0 | 0.00 | 0.00 | 0.00 | 59 | 1011.7 |
| 20260509044514 | 55 | 268 | 3.0 | 8.0 | 0.00 | 0.00 | 0.00 | 58 | 1011.7 |
| 20260509043021 | 56 | 269 | 3.0 | 7.0 | 0.00 | 0.00 | 0.00 | 58 | 1011.8 |
| 20260509041523 | 56 | 261 | 5.0 | 7.0 | 0.00 | 0.00 | 0.00 | 56 | 1011.7 |
| 20260509040026 | 56 | 259 | 3.0 | 6.0 | 0.00 | 0.00 | 0.00 | 56 | 1011.6 |
| 20260509034513 | 56 | 285 | 3.0 | 8.0 | 0.00 | 0.00 | 0.00 | 56 | 1011.7 |
| 20260509033017 | 56 | 203 | 2.0 | 5.0 | 0.00 | 0.00 | 0.00 | 56 | 1011.5 |
| 20260509031525 | 56 | 239 | 0.0 | 4.0 | 0.00 | 0.00 | 0.00 | 58 | 1011.6 |
| 20260509030025 | 56 | 136 | 0.0 | 2.0 | 0.00 | 0.00 | 0.00 | 60 | 1011.8 |
| 20260509024526 | 56 | 323 | 0.0 | 0.0 | 0.00 | 0.00 | 0.00 | 56 | 1011.7 |
| 20260509023012 | 56 | 323 | 0.0 | 2.0 | 0.00 | 0.00 | 0.00 | 57 | 1011.6 |
| 20260509021518 | 56 | 103 | 0.0 | 0.0 | 0.00 | 0.00 | 0.00 | 57 | 1011.6 |
| 20260509020035 | 56 | 296 | 0.0 | 0.0 | 0.00 | 0.00 | 0.00 | 56 | 1011.4 |
| 20260509014538 | 57 | 137 | 0.0 | 2.0 | 0.00 | 0.00 | 0.00 | 58 | 1011.4 |
| 20260509013012 | 56 | 102 | 0.0 | 1.0 | 0.00 | 0.00 | 0.00 | 59 | 1011.3 |
| 20260509011516 | 56 | 311 | 0.0 | 2.0 | 0.00 | 0.00 | 0.00 | 56 | 1011.2 |
| 20260509010020 | 57 | 105 | 0.0 | 1.0 | 0.00 | 0.00 | 0.00 | 59 | 1011.3 |
| 20260509004527 | 58 | 253 | 0.0 | 0.0 | 0.00 | 0.00 | 0.00 | 53 | 1011.4 |
| 20260509003038 | 59 | 271 | 0.0 | 2.0 | 0.00 | 0.00 | 0.00 | 49 | 1011.2 |
| 20260509001515 | 60 | 269 | 1.0 | 3.0 | 0.00 | 0.00 | 0.00 | 47 | 1011.2 |
| 20260509000016 | 61 | 261 | 0.0 | 2.0 | 0.00 | 0.00 | 0.00 | 46 | 1011.0 |
| 20260508234523 | 63 | 246 | 0.0 | 0.0 | 0.00 | 0.00 | 0.00 | 40 | 1010.7 |
| 20260508233025 | 66 | 326 | 1.0 | 5.0 | 0.00 | 0.00 | 0.00 | 37 | 1010.4 |
| 20260508231530 | 69 | 317 | 2.0 | 4.0 | 0.00 | 0.00 | 0.00 | 33 | 1010.3 |
| 20260508230019 | 70 | 316 | 2.0 | 7.0 | 0.00 | 0.00 | 0.00 | 30 | 1010.3 |
| 20260508224520 | 71 | 274 | 1.0 | 8.0 | 0.00 | 0.00 | 0.00 | 30 | 1010.3 |